Location: *
(43.4667°N, 11.6833°E)
Time: 09:46:35
(UTC+00:00)

ASTEX 1 - Pass Details

Date: 19 July 2019
Orbit: 721 x 742 km, 92.7° (Epoch: 23 August)

Event Time Altitude Azimuth Distance (km) Brightness Sun altitude
Rises 21:49:37 0° 0° (N) 3,189 7.8 -22.5°
Reaches altitude 10° 21:51:58 10° 356° (N) 2,263 6.9 -22.7°
Maximum altitude 21:56:50 52° 281° (W) 917 4.0 -23.0°
Enters shadow 21:58:39 34° 225° (SW) 1,202 4.3 -23.1°
